METOP-C (43689 NORAD) Tracking and Keplerian Element Data

This shows tracking and keplerian element data for the satellite.

Feedback or suggestion? Click here.




ElementValue
Catalog43689
NameMETOP-C
Epoch Orbit92
Epoch Day317.56011526
Epoch Year2018
RAAN14.8169
Inclination98.734
Eccentricity8.86E-05
Argument of Perigee265.0395
Mean Anonmoly95.0685
Mean Motion14.25578357
Decay Rate-4.4E-07
L11 43689U 18087A 18317.56011526 -.00000044 00000-0 00000-0 0 9999
L22 43689 98.7340 14.8169 0000886 265.0395 95.0685 14.25578357 925

Live tracking and technical data element details for METOP-C (NORAD 43689). METOP-C can be tracked NOW for your location showing map with azimuth and elevation plus other details from your city location.

Track the satellite on the map from your city or location and see movement details for azimuth, elevation, latitude, longitude, range, height, and movement on the map or in text.







IsCatalogInMostPopularTable: catalog: 43689, numindb: 11
Update: records affected: 1



GetName: 43689 METOP-C

Hit Count: updated at: Thu, 15 Nov 2018 03:41:49 GMT